FENGYUN 1C DEB

Satellite information

Favourite Embed

Satellite Type and Status

DEBRISIN ORBIT

Key statistics

Satellite FENGYUN 1C DEB at a glance.

Uptime

9714

Days in orbit

Revolutions

≈ 14.7

Per day

Orbit

SSO

Sun Synchronous Orbit

Inclination

99.1

Latest

Satellite identification and parameters

Extended collection of information and parameters for FENGYUN 1C DEB.

Object identification

Identified? True

Debris? True

Object name: FENGYUN 1C DEB

International designator: 1999-025CRT

Object number (NORAD): 32125

Object ID (CCSDS): 32125

Country: PEOPLES REPUBLIC OF CHINA (PRC)

Current information (Y/N): Y

RCS size: SMALL

Orbital parameters

Period: 98.024 minutes

Inclination: 99.061 deg

SMA: 7042.313 km

Apoapsis: 789.217 km

Periapsis: 539.139 km

RAAN: 313.7121 deg

Eccentricy: 0.01775541

Argument of periapsis: 0.429 deg

Mean anomaly: 359.7033 deg

Mean motion: 14.69027096 rev/day

Mean motion (dot): 0.00025065 rev/day2

B* drag term: 0.0033542642 1/REarth

Two-line elements (TLE)

Creation date: Dec. 1, 2025, 3:48 a.m.

Reference frame: TEME

Reference center: EARTH

Epoch: Nov. 30, 2025, 4:29 p.m. UTC

TLE line 0: 0 FENGYUN 1C DEB

TLE line 1: 1 32125U 99025CRT 25334.68734448 .00025065 00000-0 33543-2 0 9997

TLE line 2: 2 32125 99.0610 313.7121 0177554 0.4290 359.7033 14.69027096703466

Live tracking on map

Real-time ground track for satellite FENGYUN 1C DEB.

In-orbit conjunctions

A list of the most updated potential collisions computed for object FENGYUN 1C DEB.

Target Orbit TCA Probability of collision Miss distance Type
DUMSAT LEO 2024-08-25 20:10:42 0.0001464491 784.0 (m) PAYLOAD

Associated space launch

Chinese polar orbiting meteorological satellite

FENGYUN 1C DEB was lifted into orbit during the mission ‘Long March 4B | Feng Yun 1C’, on board a Long March 4B space rocket.

The launch took place on May 10, 1999, 1:33 a.m. from Launch Complex 7.

For more information about the launch, click the button.

Launch to space Long March 4B | Feng Yun 1C
Long March 4B | Feng Yun 1C

Agency: N/A

Status: Launch Successful

Launch date: May 10, 1999, 1:33 a.m. UTC

Rocket: Long March 4B

Launch pad: Launch Complex 7

Location: Taiyuan Satellite Launch Center, People's Republic of China

...

Latest news about this satellite

There are no fresh news available about this satellite. Check back as we update our databases every day.


Newsletter sign-up

Weekly statistics, charts and insights to help you stay on top of the space industry.